Location: Cowley
(49.5667°N, 114.0667°W)
Time: 11:07:06
(UTC+00:00)

Envisat - Pass Details

Date: 01 December 2021
Orbit: 764 x 766 km, 98.2° (Epoch: 23 January)

Event Time Altitude Azimuth Distance (km) Brightness Sun altitude
Rises 12:23:03 0° 17° (NNE) 3,247 6.4 -26.4°
Reaches altitude 10° 12:25:26 10° 22° (NNE) 2,315 5.7 -26.1°
Maximum altitude 12:30:26 55° 100° (E) 922 3.6 -25.3°
Drops below altitude 10° 12:35:24 10° 178° (S) 2,297 5.5 -24.5°
Sets 12:37:44 0° 183° (S) 3,218 6.3 -24.1°
